Showing default

ION SCV-004, 50993

Orbit data source: Space-Track

ION SCV-004, 50993 is a payload satellite owned by D-ORBIT (IT) in SSO that was launched on Thu, 13 Jan 2022 UTC via an FALCON 9 launch vehicle from the Air Force Eastern Test Range (AFETR). Payload-class satellites include a variety of spacecraft equipped with specific instruments for various scientific and technological missions. These include communications satellites like Starlink; space stations such as the ISS; scientific satellites like the Hubble; Earth observation satellites from companies like Planet Labs, Umbra, and HawkEye 360; GPS; miniature CubeSats for education and research; and military/defense satellites.

Loading next visibility...
Identifier
50993, 2022-002K
Orbit
SSO
Country
Flag of ITIT
Related business
Manufacturer
D-ORBIT
Mission
Operational Commercial Technology
Bus & Motor
ION-SC, PM200
Mass
220 kg wet, 150 kg dry
Launch date (UTC)
2022-01-13 (4 years ago)
Launch vehicle
FALCON 9
Launch site
Air Force Eastern Test Range (AFETR)
Object type
Payload
Rocket body
Debris
Shape & HBR
Box, 0.2 m
Radar Cross Section
0.240 m², Medium (>0.1 m² and < 1m²)

Expand to show TLE details & history
Last TLE update: 6 hours ago

TLE from 6 hours ago
0 ION SCV-004
1 50993U 22002K   25291.15546080  .00009919  00000-0  37393-3 0  9996
2 50993  97.3217 348.3540 0009341 127.8266 232.3820 15.27221165208319
Epoch: 2025-10-18T03:43Z
TLE epoch observation values (Epoch: 2025-10-18T03:43:51.813Z)
Latitude
-0.00001°
Longitude
-94.50242°
Altitude
491.144 km
Speed
7.617 km/s
True Right ascension
23h 13m 24s
True Declination
0° 00' 00"
Sunlit
Object was in full shadow at epoch
Visualization orbit readout
Latitude
Unknown
Longitude
Unknown
Altitude
Unknown
Speed
Unknown
Apparent Right ascension
Unknown
Apparent Declination
Unknown
Sunlit
N/A
Visualization observer readout
Local Sidereal Time
04:26:15
Azimuth
Unknown
Elevation
Unknown
Doppler factor
Unknown
Orbital elements
Apogee altitude
487.484 km
Perigee altitude
474.669 km
Semi-major axis
6,859.213 km
Eccentricity
0.00093
Inclination
97.3217°
RAAN
348.354°
Arg. of periapsis
127.8266°
True anomaly
232.29727°
Mean anomaly
232.382°
Eccentric anomaly
232.33963°
Mean motion
3.8206 °/min
Orbital period
94.23 mins
BSTAR
0.00037393
Loading maneuver chart data...
Computing Atmospheric mass density...

Documentation

Showing up to 5 results
|